Regional Weather Roundup
Issued by NWS

Home | Current Version | Previous Version | Text Only | Print | Product List | Glossary Off
Versions: 1 2 3 4 5 6 7 8 9 10 11 12 13 14 15 16 17 18 19 20 21 22 23 24 25 26 27 28 29 30 31 32 33 34 35 36 37 38 39 40 41 42 43 44 45 46 47 48 49 50

000
ASUS45 KBOI 281010
RWRID
WEATHER ROUNDUP FOR IDAHO
NATIONAL WEATHER SERVICE BOISE ID
400 AM MDT MON JUL 28 2014

NOTE: "FAIR" INDICATES FEW OR NO CLOUDS BELOW 12000 FEET
WITH NO SIGNIFICANT WEATHER AND/OR OBSTRUCTIONS TO VISIBILITY

IDZ012-014-281100-
SOUTHWEST IDAHO


CITY           SKY/WX    TMP DP  RH WIND       PRES   REMARKS
BOISE          PTCLDY    79  36  21 S5        30.02R
CALDWELL       PTCLDY    68  45  42 NW3       30.03S
MOUNTAIN HOME  CLOUDY    81  40  23 NE10      30.01F
$$

IDZ016-017-281100-
SOUTHCENTRAL IDAHO


CITY           SKY/WX    TMP DP  RH WIND       PRES   REMARKS
BURLEY         PTCLDY    69  41  36 S10       30.12R
JEROME         MOCLDY    69  49  48 N3        30.11S
TWIN FALLS     MOCLDY    77  35  21 S12       30.12R
$$

IDZ019>023-281100-
SOUTHEAST IDAHO


CITY           SKY/WX    TMP DP  RH WIND       PRES   REMARKS
IDAHO FALLS    PTCLDY    53  44  71 N9        30.18R
POCATELLO      CLEAR     58  42  55 N7        30.15R
REXBURG        PTCLDY    54  42  64 NE6       30.20S
$$

IDZ006-010-011-018-031-032-281100-
CENTRAL IDAHO MOUNTAINS


CITY           SKY/WX    TMP DP  RH WIND       PRES   REMARKS
MCCALL         PTCLDY    60  41  49 SW3       30.20R
HAILEY         CLOUDY    72  37  28 W8        30.22S
STANLEY          N/A     54  33  45 CALM      30.35R
SALMON         NOT AVBL
CHALLIS        PTCLDY    61  30  31 W3        30.23S
$$

IDZ002-004-006-007-026-281100-
NORTHERN IDAHO


CITY           SKY/WX    TMP DP  RH WIND       PRES   REMARKS
LEWISTON       MOCLDY    75  41  29 S7        30.02S
LOWELL           N/A     60  53  77 CALM      30.08F
COEUR D`ALENE  MOCLDY    61  43  51 E7        30.11R
MULLAN PASS    MOCLDY    66  36  32 SE8       30.32F
$$


USA.gov is the U.S. government's official web portal to all federal, state and local government web resources and services.